Terug naar catalogus

STARLINK-32239

ActiefCommunicatieVLEO
NORAD 61892·PAYLOAD·🇺🇸 United States

Gelanceerd Nov 9, 2024 vanaf Vandenberg Space Force Base

Loading…

Volgende Passages (komende 24 uur)

TLE

VersSource: CelesTrak SupGP

Epoch: Sep 15, 2026, 03:02 UTC

1 61892C 24204U   26258.12687500  .00051044  00000+0  15084-2 0  2581
2 61892  53.1584 324.5299 0001262  95.5734  76.7856 15.34359830    13

Volg STARLINK-32239 in realtime met AllMySat

Download on the App Store